RYR99LW EPKK-EPSC

Flight info

Callsign RYR99LW
Flight time 0h 53m
Altitude 34000
Route LUMVE L619 NUDRO/N0363F280 L619 DENKO L996 XERBI DCT FORFE DCT ZAWIK
Aircraft B738/M-SDE2E3FGHIRWXY/LB1

Departure

Time 2026-04-20 22:27
Airport Kraków John Paul II International Airport (EPKK)

Arrival

Time 2026-04-20 23:20
Airport Solidarity Szczecin–Goleniów Airport (EPSC)
Time Latitude Longitude Altitude Speed Heading
2026-04-20 22:05 50.07592 19.79800 799 ft 0 kts 257°
2026-04-20 22:21 50.07592 19.79799 799 ft 0 kts 257°
2026-04-20 22:21 50.07589 19.79780 799 ft 4 kts 257°
2026-04-20 22:21 50.07594 19.79728 799 ft 6 kts 310°
2026-04-20 22:22 50.07643 19.79702 799 ft 9 kts 345°
2026-04-20 22:22 50.07678 19.79622 799 ft 11 kts 267°
2026-04-20 22:22 50.07660 19.79488 799 ft 14 kts 258°
2026-04-20 22:22 50.07637 19.79327 799 ft 17 kts 257°
2026-04-20 22:23 50.07610 19.79138 799 ft 19 kts 257°
2026-04-20 22:23 50.07580 19.78923 799 ft 21 kts 258°
2026-04-20 22:23 50.07548 19.78687 799 ft 23 kts 258°
2026-04-20 22:23 50.07513 19.78434 799 ft 25 kts 257°
2026-04-20 22:24 50.07488 19.78257 799 ft 26 kts 258°
2026-04-20 22:24 50.07449 19.77975 799 ft 28 kts 258°
2026-04-20 22:24 50.07407 19.77676 799 ft 29 kts 258°
2026-04-20 22:24 50.07367 19.77391 799 ft 23 kts 258°
2026-04-20 22:25 50.07334 19.77156 799 ft 22 kts 258°
2026-04-20 22:25 50.07308 19.76960 799 ft 14 kts 264°
2026-04-20 22:25 50.07378 19.76879 799 ft 14 kts 345°
2026-04-20 22:25 50.07474 19.76847 800 ft 14 kts 349°
2026-04-20 22:26 50.07555 19.76890 801 ft 15 kts 68°
2026-04-20 22:26 50.07588 19.77142 802 ft 46 kts 78°
2026-04-20 22:26 50.07714 19.78058 797 ft 124 kts 78°
2026-04-20 22:27 50.08174 19.81541 1761 ft 186 kts 78°
2026-04-20 22:27 50.08618 19.83432 2614 ft 188 kts 54°
2026-04-20 22:27 50.09796 19.84548 2980 ft 216 kts 14°
2026-04-20 22:27 50.11401 19.84380 2991 ft 247 kts 341°
2026-04-20 22:28 50.12817 19.82744 3179 ft 266 kts 309°
2026-04-20 22:28 50.13864 19.80335 3993 ft 271 kts 301°
2026-04-20 22:28 50.14811 19.77806 5088 ft 269 kts 300°
2026-04-20 22:28 50.15746 19.75254 6098 ft 272 kts 300°
2026-04-20 22:29 50.16697 19.72680 7031 ft 275 kts 300°
2026-04-20 22:29 50.17656 19.70118 8064 ft 273 kts 300°
2026-04-20 22:29 50.18623 19.67565 9065 ft 274 kts 300°
2026-04-20 22:29 50.19593 19.65024 9962 ft 278 kts 300°
2026-04-20 22:30 50.20602 19.62399 10591 ft 291 kts 300°
2026-04-20 22:30 50.21692 19.59570 10866 ft 315 kts 301°
2026-04-20 22:30 50.22842 19.56597 11545 ft 323 kts 301°
2026-04-20 22:30 50.24014 19.53574 12385 ft 327 kts 301°
2026-04-20 22:31 50.24814 19.51511 12997 ft 329 kts 301°
2026-04-20 22:31 50.25420 19.49949 13453 ft 332 kts 301°
2026-04-20 22:31 50.26624 19.46847 14290 ft 336 kts 301°
2026-04-20 22:31 50.27843 19.43701 15130 ft 340 kts 301°
2026-04-20 22:32 50.29082 19.40503 15991 ft 343 kts 301°
2026-04-20 22:32 50.30309 19.37332 16833 ft 347 kts 301°
2026-04-20 22:32 50.31564 19.34084 17665 ft 351 kts 301°
2026-04-20 22:32 50.32836 19.30790 18475 ft 356 kts 301°
2026-04-20 22:33 50.34122 19.27457 19198 ft 359 kts 301°
2026-04-20 22:33 50.35416 19.24096 19942 ft 362 kts 300°
2026-04-20 22:33 50.36723 19.20697 20679 ft 365 kts 300°
2026-04-20 22:33 50.38043 19.17260 21392 ft 369 kts 300°
2026-04-20 22:34 50.39370 19.13801 22087 ft 372 kts 300°
2026-04-20 22:34 50.40711 19.10300 22780 ft 376 kts 300°
2026-04-20 22:34 50.42062 19.06770 23461 ft 379 kts 300°
2026-04-20 22:34 50.43423 19.03206 24051 ft 383 kts 300°
2026-04-20 22:35 50.44799 18.99600 24604 ft 386 kts 300°
2026-04-20 22:35 50.46164 18.96018 25154 ft 389 kts 300°
2026-04-20 22:35 50.47558 18.92354 25699 ft 392 kts 300°
2026-04-20 22:35 50.48963 18.88654 26203 ft 395 kts 299°
2026-04-20 22:36 50.50375 18.84934 26728 ft 398 kts 299°
2026-04-20 22:36 50.51796 18.81182 27251 ft 401 kts 299°
2026-04-20 22:36 50.53227 18.77399 27801 ft 403 kts 299°
2026-04-20 22:36 50.54655 18.73619 28447 ft 401 kts 299°
2026-04-20 22:37 50.56077 18.69852 29207 ft 398 kts 299°
2026-04-20 22:37 50.57485 18.66114 29920 ft 396 kts 299°
2026-04-20 22:37 50.58887 18.62388 30456 ft 396 kts 299°
2026-04-20 22:37 50.60289 18.58654 30950 ft 396 kts 299°
2026-04-20 22:38 50.61688 18.54922 31463 ft 395 kts 299°
2026-04-20 22:38 50.63080 18.51205 32022 ft 393 kts 299°
2026-04-20 22:38 50.64467 18.47495 32507 ft 393 kts 299°
2026-04-20 22:38 50.65833 18.43837 32986 ft 392 kts 299°
2026-04-20 22:39 50.67229 18.40091 33507 ft 391 kts 299°
2026-04-20 22:39 50.68584 18.36452 33985 ft 390 kts 299°
2026-04-20 22:39 50.71349 18.29010 34082 ft 392 kts 299°
2026-04-20 22:40 50.74171 18.21693 34089 ft 390 kts 305°
2026-04-20 22:40 50.77448 18.14863 34092 ft 390 kts 306°
2026-04-20 22:41 50.80764 18.08062 34104 ft 391 kts 306°
2026-04-20 22:41 50.84067 18.01220 34104 ft 392 kts 306°
2026-04-20 22:42 50.87365 17.94338 34100 ft 392 kts 306°
2026-04-20 22:42 50.90638 17.87475 34089 ft 393 kts 306°
2026-04-20 22:43 50.93933 17.80548 34102 ft 393 kts 306°
2026-04-20 22:43 50.97220 17.73620 34110 ft 393 kts 306°
2026-04-20 22:44 51.00508 17.66671 34101 ft 393 kts 306°
2026-04-20 22:44 51.03771 17.59755 34092 ft 392 kts 306°
2026-04-20 22:45 51.07041 17.52808 34106 ft 392 kts 305°
2026-04-20 22:45 51.10304 17.45856 34105 ft 392 kts 305°
2026-04-20 22:46 51.13564 17.38893 34115 ft 392 kts 305°
2026-04-20 22:46 51.17406 17.32742 34127 ft 395 kts 323°
2026-04-20 22:47 51.19781 17.30503 34106 ft 398 kts 334°
2026-04-20 22:47 51.22314 17.28869 34132 ft 399 kts 337°
2026-04-20 22:47 51.27550 17.25792 34122 ft 401 kts 338°
2026-04-20 22:48 51.32789 17.22682 34129 ft 401 kts 337°
2026-04-20 22:48 51.38015 17.19507 34116 ft 402 kts 337°
2026-04-20 22:49 51.43226 17.16315 34126 ft 403 kts 336°
2026-04-20 22:49 51.48466 17.13100 34124 ft 403 kts 336°
2026-04-20 22:50 51.53710 17.09874 34128 ft 404 kts 336°
2026-04-20 22:50 51.58957 17.06638 34136 ft 404 kts 336°
2026-04-20 22:51 51.64152 17.03428 33860 ft 394 kts 336°
2026-04-20 22:51 51.66689 17.01858 33581 ft 387 kts 336°
2026-04-20 22:51 51.69186 17.00310 33300 ft 382 kts 336°
2026-04-20 22:52 51.71652 16.98779 33019 ft 376 kts 336°
2026-04-20 22:52 51.74082 16.97265 32747 ft 371 kts 336°
2026-04-20 22:52 51.76450 16.95789 32483 ft 367 kts 336°
2026-04-20 22:52 51.78817 16.94310 32216 ft 362 kts 336°
2026-04-20 22:53 51.81149 16.92851 31953 ft 358 kts 336°
2026-04-20 22:53 51.83469 16.91398 31696 ft 357 kts 336°
2026-04-20 22:53 51.85793 16.89940 31457 ft 360 kts 336°
2026-04-20 22:53 51.88146 16.88461 31218 ft 366 kts 336°
2026-04-20 22:54 51.90534 16.86960 30970 ft 369 kts 337°
2026-04-20 22:54 51.92928 16.85454 30729 ft 369 kts 337°
2026-04-20 22:54 51.95330 16.83942 30486 ft 370 kts 337°
2026-04-20 22:54 51.97735 16.82427 30240 ft 370 kts 337°
2026-04-20 22:55 52.00143 16.80908 29954 ft 371 kts 337°
2026-04-20 22:55 52.02548 16.79388 29666 ft 371 kts 338°
2026-04-20 22:55 52.04927 16.77884 29382 ft 372 kts 338°
2026-04-20 22:55 52.07370 16.76337 29097 ft 372 kts 338°
2026-04-20 22:56 52.09751 16.74829 28773 ft 372 kts 338°
2026-04-20 22:56 52.12193 16.73257 28035 ft 379 kts 335°
2026-04-20 22:56 52.14511 16.71240 27525 ft 378 kts 325°
2026-04-20 22:56 52.16668 16.68805 27070 ft 376 kts 323°
2026-04-20 22:57 52.18793 16.66344 26686 ft 373 kts 323°
2026-04-20 22:57 52.20900 16.63894 26300 ft 371 kts 323°
2026-04-20 22:57 52.22992 16.61465 25930 ft 368 kts 323°
2026-04-20 22:57 52.25073 16.59054 25560 ft 365 kts 324°
2026-04-20 22:58 52.27140 16.56667 25186 ft 363 kts 324°
2026-04-20 22:58 52.29200 16.54291 24828 ft 361 kts 324°
2026-04-20 22:58 52.31248 16.51931 24464 ft 359 kts 324°
2026-04-20 22:58 52.33286 16.49581 24098 ft 357 kts 324°
2026-04-20 22:59 52.35311 16.47246 23734 ft 356 kts 324°
2026-04-20 22:59 52.37332 16.44912 23312 ft 354 kts 324°
2026-04-20 22:59 52.39338 16.42594 22918 ft 352 kts 324°
2026-04-20 22:59 52.41331 16.40288 22534 ft 350 kts 324°
2026-04-20 23:00 52.43311 16.37995 22172 ft 347 kts 324°
2026-04-20 23:00 52.44969 16.36072 21872 ft 345 kts 325°
2026-04-20 23:00 52.46002 16.34874 21683 ft 344 kts 325°
2026-04-20 23:00 52.47775 16.32816 21360 ft 342 kts 325°
2026-04-20 23:01 52.49712 16.30564 21009 ft 340 kts 325°
2026-04-20 23:01 52.51502 16.28481 20684 ft 338 kts 325°
2026-04-20 23:01 52.53391 16.26281 20344 ft 337 kts 325°
2026-04-20 23:01 52.55299 16.24056 19995 ft 335 kts 325°
2026-04-20 23:02 52.57200 16.21836 19652 ft 334 kts 325°
2026-04-20 23:02 52.58966 16.19772 19330 ft 333 kts 325°
2026-04-20 23:02 52.60854 16.17564 18986 ft 332 kts 325°
2026-04-20 23:02 52.62742 16.15354 18638 ft 331 kts 325°
2026-04-20 23:03 52.64618 16.13152 18268 ft 331 kts 325°
2026-04-20 23:03 52.66488 16.10957 17884 ft 330 kts 325°
2026-04-20 23:03 52.68353 16.08767 17520 ft 328 kts 325°
2026-04-20 23:03 52.70208 16.06587 17174 ft 327 kts 325°
2026-04-20 23:04 52.72055 16.04412 16822 ft 325 kts 325°
2026-04-20 23:04 52.73892 16.02247 16479 ft 324 kts 325°
2026-04-20 23:04 52.75700 16.00114 16137 ft 323 kts 325°
2026-04-20 23:04 52.77521 15.97964 15795 ft 322 kts 325°
2026-04-20 23:05 52.79339 15.95815 15457 ft 321 kts 325°
2026-04-20 23:05 52.81154 15.93667 15115 ft 320 kts 325°
2026-04-20 23:05 52.82960 15.91526 14775 ft 319 kts 325°
2026-04-20 23:05 52.84760 15.89392 14428 ft 318 kts 326°
2026-04-20 23:06 52.86563 15.87251 14093 ft 318 kts 326°
2026-04-20 23:06 52.88360 15.85114 13725 ft 318 kts 326°
2026-04-20 23:06 52.90157 15.82977 13361 ft 317 kts 326°
2026-04-20 23:06 52.91945 15.80847 13006 ft 316 kts 326°
2026-04-20 23:07 52.93704 15.78750 12666 ft 314 kts 326°
2026-04-20 23:07 52.95473 15.76638 12326 ft 313 kts 327°
2026-04-20 23:07 52.97237 15.74530 11988 ft 312 kts 327°
2026-04-20 23:07 52.98995 15.72428 11648 ft 310 kts 327°
2026-04-20 23:08 53.00741 15.70337 11316 ft 309 kts 327°
2026-04-20 23:08 53.02481 15.68252 10985 ft 308 kts 327°
2026-04-20 23:08 53.04217 15.66170 10654 ft 307 kts 327°
2026-04-20 23:08 53.05943 15.64098 10356 ft 304 kts 327°
2026-04-20 23:09 53.07635 15.62061 10162 ft 298 kts 328°
2026-04-20 23:09 53.09312 15.60043 9835 ft 297 kts 328°
2026-04-20 23:09 53.10418 15.58713 9610 ft 296 kts 328°
2026-04-20 23:09 53.12083 15.56707 9287 ft 294 kts 327°
2026-04-20 23:10 53.13740 15.54709 8970 ft 293 kts 327°
2026-04-20 23:10 53.15386 15.52722 8658 ft 291 kts 327°
2026-04-20 23:10 53.17026 15.50739 8348 ft 290 kts 327°
2026-04-20 23:10 53.18655 15.48769 8039 ft 289 kts 327°
2026-04-20 23:11 53.20279 15.46802 7733 ft 287 kts 327°
2026-04-20 23:11 53.21894 15.44845 7427 ft 286 kts 327°
2026-04-20 23:11 53.23506 15.42890 7121 ft 286 kts 327°
2026-04-20 23:11 53.25132 15.40918 6615 ft 293 kts 327°
2026-04-20 23:12 53.26782 15.38913 6217 ft 294 kts 327°
2026-04-20 23:12 53.28431 15.36907 5883 ft 292 kts 327°
2026-04-20 23:12 53.30073 15.34906 5557 ft 291 kts 327°
2026-04-20 23:12 53.31703 15.32917 5238 ft 288 kts 327°
2026-04-20 23:13 53.33296 15.30970 4903 ft 279 kts 327°
2026-04-20 23:13 53.34826 15.29099 4607 ft 275 kts 327°
2026-04-20 23:13 53.36367 15.27216 4324 ft 274 kts 327°
2026-04-20 23:13 53.37903 15.25337 4038 ft 273 kts 327°
2026-04-20 23:14 53.39427 15.23471 3844 ft 268 kts 327°
2026-04-20 23:14 53.40907 15.21656 3721 ft 260 kts 327°
2026-04-20 23:14 53.42347 15.19888 3612 ft 253 kts 327°
2026-04-20 23:14 53.43740 15.18174 3536 ft 242 kts 327°
2026-04-20 23:15 53.45034 15.16343 3323 ft 246 kts 318°
2026-04-20 23:15 53.46190 15.14226 3078 ft 245 kts 313°
2026-04-20 23:15 53.47288 15.12054 2829 ft 242 kts 313°
2026-04-20 23:15 53.48363 15.09932 2607 ft 235 kts 314°
2026-04-20 23:16 53.49408 15.07887 2383 ft 226 kts 315°
2026-04-20 23:16 53.50418 15.05916 2146 ft 219 kts 315°
2026-04-20 23:16 53.51395 15.04007 1924 ft 208 kts 316°
2026-04-20 23:16 53.52298 15.02243 1744 ft 189 kts 316°
2026-04-20 23:17 53.53125 15.00633 1668 ft 178 kts 316°
2026-04-20 23:17 53.53936 14.99055 1277 ft 178 kts 315°
2026-04-20 23:17 53.53981 14.98967 1258 ft 176 kts 315°
2026-04-20 23:17 53.54131 14.98675 1224 ft 172 kts 315°
2026-04-20 23:18 53.54867 14.97235 931 ft 153 kts 314°
2026-04-20 23:18 53.55512 14.95915 722 ft 143 kts 315°
2026-04-20 23:18 53.56147 14.94701 566 ft 136 kts 316°
2026-04-20 23:18 53.56763 14.93511 420 ft 134 kts 317°
2026-04-20 23:19 53.57377 14.92326 291 ft 134 kts 315°
2026-04-20 23:19 53.57988 14.91142 177 ft 130 kts 314°
2026-04-20 23:19 53.58522 14.90126 147 ft 96 kts 310°
2026-04-20 23:19 53.58857 14.89477 137 ft 57 kts 310°
2026-04-20 23:20 53.59027 14.89142 134 ft 20 kts 313°
2026-04-20 23:20 53.59098 14.89152 131 ft 10 kts 41°
2026-04-20 23:20 53.59136 14.89210 129 ft 6 kts 41°
2026-04-20 23:20 53.59166 14.89255 131 ft 6 kts 42°
2026-04-20 23:21 53.59193 14.89301 131 ft 6 kts 47°
2026-04-20 23:21 53.59219 14.89348 131 ft 4 kts 48°
2026-04-20 23:21 53.59232 14.89373 131 ft 3 kts 48°
2026-04-20 23:21 53.59240 14.89388 129 ft 1 kts 48°
2026-04-20 23:22 53.59244 14.89395 131 ft 1 kts 48°
2026-04-20 23:22 53.59246 14.89398 131 ft 0 kts 48°